Location: Lafig�re
(44.4503°N, 4.0357°E)
Time: 01:17:06
(UTC+00:00)

Transit 4A - Pass Details

Date: 30 January 2021
Orbit: 866 x 979 km, 66.8° (Epoch: 24 February)

Event Time Altitude Azimuth Distance (km) Brightness Sun altitude
Rises 03:26:20 0° 319° (NW) 3,606 - -38.9°
Reaches altitude 10° 03:29:13 10° 309° (NW) 2,638 - -38.4°
Maximum altitude 03:34:18 28° 252° (WSW) 1,635 - -37.5°
Drops below altitude 10° 03:39:15 10° 195° (SSW) 2,558 - -36.7°
Sets 03:42:02 0° 184° (S) 3,477 - -36.2°
